Back to catalog

STARLINK-34143

AliveCommunicationsVLEO
NORAD 63896·PAYLOAD·🇺🇸 United States

Launched May 10, 2025 from Cape Canaveral Space Force Station

Loading…

Next Passes (next 24 hours)

TLE

FreshSource: CelesTrak SupGP

Epoch: Sep 14, 2026, 22:38 UTC

1 63896C 25095G   26257.94354167 -.00038492  00000+0 -13939-2 0  2575
2 63896  43.0003 187.3237 0001352 268.5179  59.7117 15.27603535    12

Track STARLINK-34143 in real time with AllMySat

Download on the App Store